User: anonymous   Login
Location: Arbon
(43.0005°N, 0.7472°E)
Time: 18:24:18
(UTC+00:00)
Language:

CBERS-1 - Orbit

View from above orbital plane
View from above orbital plane
View from above satellite
View from above satellite

Ground track
Ground track

The orbit data is extracted from the following two-line orbital elements,

1 25940U 99057A   20295.47950297 -.00000001  00000-0  15097-4 0  9999
2 25940  98.6212 240.0020 0004795 348.3287  11.7787 14.35513725101186
Epoch (UTC): 21 October 2020 11:30:29
Eccentricity: 0.0004795
inclination: 98.6212°
perigee height: 770 km
apogee height: 777 km
right ascension of ascending node: 240.0020°
argument of perigee: 348.3287°
revolutions per day: 14.35513725
mean anomaly at epoch: 11.7787°
orbit number at epoch: 10118

The dashed part of the orbit path shows where the satellite is in the earth's shadow,  

DLR